User: anonymous   Login
Location: Fours
(44.3167°N, 6.7000°E)
Time: 09:03:59
(UTC+00:00)
Language:

CSL-04 Rocket - Orbit

View from above orbital plane
View from above orbital plane
View from above satellite
View from above satellite

Ground track
Ground track

The orbit data is extracted from the following two-line orbital elements,

1 25732U 99025C   22024.76256900 -.00000060  00000-0 -74279-5 0  9991
2 25732  98.8760  66.4010 0036911 339.5317 130.0845 14.17711545174893
Epoch (UTC): 24 January 2022 18:18:05
Eccentricity: 0.0036911
inclination: 98.8760°
perigee height: 806 km
apogee height: 860 km
right ascension of ascending node: 66.4010°
argument of perigee: 339.5317°
revolutions per day: 14.17711545
mean anomaly at epoch: 130.0845°
orbit number at epoch: 17489

The dashed part of the orbit path shows where the satellite is in the earth's shadow,  

DLR